Mill Run, PA (15464)

7:32 AM EDT on September 03, 2015 (GMT -0400)
Near Evergreen Drive-in | | Change Station
CLOSE
Current Station
Personal Weather Station
Location: Mount Pleasant, PA
Elevation: 1060 ft
Nearby Weather Stations

Elev 1060 ft 40.12 °N, 79.55 °W | Updated 18 seconds ago

Clear
Clear
67.5 °F
Feels Like 67.5 °F
N
0.0
Wind Variable Wind from South
Gusts 0.7 mph

Today
High -- | Low -- °F
--% Chance of Precip.
Yesterday
High -- | Low -- °F
Precip. -- in
6:47 AM 7:46 PM
Waning Gibbous, 71% visible
Pressure 30.01 in
Visibility 7.0 miles
Clouds Few 25000 ft
Dew Point 66 °F
Humidity 95%
Rainfall 0.13 in
Snow Depth Not available.
UV 0 out of 12
Pollen 10.10 out of 12
Air Quality Not available.
Flu Activity Not available.
METAR KLBE 031045Z 25005KT 7SM FEW250 19/19 A3001
Pressure 30.01 in
Visibility 7.0 miles
Clouds Few 25000 ft
Dew Point 66 °F
Humidity 95%
Rainfall 0.13 in
Snow Depth Not available.
UV 0 out of 12
Pollen 10.10 out of 12
Air Quality Not available.
Flu Activity Not available.
METAR KLBE 031045Z 25005KT 7SM FEW250 19/19 A3001

10-Day Weather Forecast

×

Almanac

Astronomy

Sep. 03, 2015 Rise Set
Actual Time
Civil Twilight
Nautical Twilight
Astronomical Twilight
Moon
Length of Visible Light
Length of Day
Tomorrow will be .
, % of the Moon is Illuminated

Today's Extremes

State Highs State Lows

Community

WunderPhotos

Upload Photos

1,851,933 photos uploaded!

WunderBlogs® & News

Nearby

Air Quality

  Air Quality AQ Index Pollutant
Not available.

Snow Depth

Station Depth Elevation

Earthquake Activity

City Distance Mag. Time & Date
Minimum magnitude displayed is 2.5.

Coastal Water Temperatures

Place Temperature

Stations

Nearby Weather Stations

Station Location Temp. Windchill Dew Point Humidity Wind Precip. Elev Updated Type